BEIDOU-2 IGSO-6 (C13)

Last updated on Sat Aug 15 2026 00:03:26 GMT+0000 (Coordinated Universal Time)

1 41434U 16021A 26226.44412221 -.00000148 00000+0 00000+0 0 9996 2 41434 60.3141 37.4612 0060289 228.0565 312.6609 1.00287820 38061
UTC large
Height (km)
Speed (km/s)
/
Latitude / Longitude
Inclination (degrees)
Orbital Period (minutes)
Azimuth
Elevation
Range (km)
Doppler Factor

Next 0 passes for location: London (51.5072 / 0.1276)

No passes found over London.
BEIDOU-2 IGSO-6 (C13)